Year,Month,Day,Hour,Minute,Value (Times are PST for insolation in W/m^2)
2008,04,16,00,00,0.00
2008,04,16,00,01,0.00
2008,04,16,00,02,0.00
2008,04,16,00,03,0.00
2008,04,16,00,04,0.00
2008,04,16,00,05,0.00
2008,04,16,00,06,0.00
2008,04,16,00,07,0.00
2008,04,16,00,08,0.00
2008,04,16,00,09,0.00
2008,04,16,00,10,0.00
2008,04,16,00,11,0.00
2008,04,16,00,12,0.00
2008,04,16,00,13,0.00
2008,04,16,00,14,0.00
2008,04,16,00,15,0.00
2008,04,16,00,16,0.00
2008,04,16,00,17,0.00
2008,04,16,00,18,0.00
2008,04,16,00,19,0.00
2008,04,16,00,20,0.00
2008,04,16,00,21,0.00
2008,04,16,00,22,0.00
2008,04,16,00,23,0.00
2008,04,16,00,24,0.00
2008,04,16,00,25,0.00
2008,04,16,00,26,0.00
2008,04,16,00,27,0.00
2008,04,16,00,28,0.00
2008,04,16,00,29,0.00
2008,04,16,00,30,0.00
2008,04,16,00,31,0.00
2008,04,16,00,32,0.00
2008,04,16,00,33,0.00
2008,04,16,00,34,0.00
2008,04,16,00,35,0.00
2008,04,16,00,36,0.00
2008,04,16,00,37,0.00
2008,04,16,00,38,0.00
2008,04,16,00,39,0.00
2008,04,16,00,40,0.00
2008,04,16,00,41,0.00
2008,04,16,00,42,0.00
2008,04,16,00,43,0.00
2008,04,16,00,44,0.00
2008,04,16,00,45,0.00
2008,04,16,00,46,0.00
2008,04,16,00,47,0.00
2008,04,16,00,48,0.00
2008,04,16,00,49,0.00
2008,04,16,00,50,0.00
2008,04,16,00,51,0.00
2008,04,16,00,52,0.00
2008,04,16,00,53,0.00
2008,04,16,00,54,0.00
2008,04,16,00,55,0.00
2008,04,16,00,56,0.00
2008,04,16,00,57,0.00
2008,04,16,00,58,0.00
2008,04,16,00,59,0.00
2008,04,16,01,00,0.00
2008,04,16,01,01,0.00
2008,04,16,01,02,0.00
2008,04,16,01,03,0.00
2008,04,16,01,04,0.00
2008,04,16,01,05,0.00
2008,04,16,01,06,0.00
2008,04,16,01,07,0.00
2008,04,16,01,08,0.00
2008,04,16,01,09,0.00
2008,04,16,01,10,0.00
2008,04,16,01,11,0.00
2008,04,16,01,12,0.00
2008,04,16,01,13,0.00
2008,04,16,01,14,0.00
2008,04,16,01,15,0.00
2008,04,16,01,16,0.00
2008,04,16,01,17,0.00
2008,04,16,01,18,0.00
2008,04,16,01,19,0.00
2008,04,16,01,20,0.00
2008,04,16,01,21,0.00
2008,04,16,01,22,0.00
2008,04,16,01,23,0.00
2008,04,16,01,24,0.00
2008,04,16,01,25,0.00
2008,04,16,01,26,0.00
2008,04,16,01,27,0.00
2008,04,16,01,28,0.00
2008,04,16,01,29,0.00
2008,04,16,01,30,0.00
2008,04,16,01,31,0.00
2008,04,16,01,32,0.00
2008,04,16,01,33,0.00
2008,04,16,01,34,0.00
2008,04,16,01,35,0.00
2008,04,16,01,36,0.00
2008,04,16,01,37,0.00
2008,04,16,01,38,0.00
2008,04,16,01,39,0.00
2008,04,16,01,40,0.00
2008,04,16,01,41,0.00
2008,04,16,01,42,0.00
2008,04,16,01,43,0.00
2008,04,16,01,44,0.00
2008,04,16,01,45,0.00
2008,04,16,01,46,0.00
2008,04,16,01,47,0.00
2008,04,16,01,48,0.00
2008,04,16,01,49,0.00
2008,04,16,01,50,0.00
2008,04,16,01,51,0.00
2008,04,16,01,52,0.00
2008,04,16,01,53,0.00
2008,04,16,01,54,0.00
2008,04,16,01,55,0.00
2008,04,16,01,56,0.00
2008,04,16,01,57,0.00
2008,04,16,01,58,0.00
2008,04,16,01,59,0.00
2008,04,16,02,00,0.00
2008,04,16,02,01,0.00
2008,04,16,02,02,0.00
2008,04,16,02,03,0.00
2008,04,16,02,04,0.00
2008,04,16,02,05,0.00
2008,04,16,02,06,0.00
2008,04,16,02,07,0.00
2008,04,16,02,08,0.00
2008,04,16,02,09,0.00
2008,04,16,02,10,0.00
2008,04,16,02,11,0.00
2008,04,16,02,12,0.00
2008,04,16,02,13,0.00
2008,04,16,02,14,0.00
2008,04,16,02,15,0.00
2008,04,16,02,16,0.00
2008,04,16,02,17,0.00
2008,04,16,02,18,0.00
2008,04,16,02,19,0.00
2008,04,16,02,20,0.00
2008,04,16,02,21,0.00
2008,04,16,02,22,0.00
2008,04,16,02,23,0.00
2008,04,16,02,24,0.00
2008,04,16,02,25,0.00
2008,04,16,02,26,0.00
2008,04,16,02,27,0.00
2008,04,16,02,28,0.00
2008,04,16,02,29,0.00
2008,04,16,02,30,0.00
2008,04,16,02,31,0.00
2008,04,16,02,32,0.00
2008,04,16,02,33,0.00
2008,04,16,02,34,0.00
2008,04,16,02,35,0.00
2008,04,16,02,36,0.00
2008,04,16,02,37,0.00
2008,04,16,02,38,0.00
2008,04,16,02,39,0.00
2008,04,16,02,40,0.00
2008,04,16,02,41,0.00
2008,04,16,02,42,0.00
2008,04,16,02,43,0.00
2008,04,16,02,44,0.00
2008,04,16,02,45,0.00
2008,04,16,02,46,0.00
2008,04,16,02,47,0.00
2008,04,16,02,48,0.00
2008,04,16,02,49,0.00
2008,04,16,02,50,0.00
2008,04,16,02,51,0.00
2008,04,16,02,52,0.00
2008,04,16,02,53,0.00
2008,04,16,02,54,0.00
2008,04,16,02,55,0.00
2008,04,16,02,56,0.00
2008,04,16,02,57,0.00
2008,04,16,02,58,0.00
2008,04,16,02,59,0.00
2008,04,16,03,00,0.00
2008,04,16,03,01,0.00
2008,04,16,03,02,0.00
2008,04,16,03,03,0.00
2008,04,16,03,04,0.00
2008,04,16,03,05,0.00
2008,04,16,03,06,0.00
2008,04,16,03,07,0.00
2008,04,16,03,08,0.00
2008,04,16,03,09,0.00
2008,04,16,03,10,0.00
2008,04,16,03,11,0.00
2008,04,16,03,12,0.00
2008,04,16,03,13,0.00
2008,04,16,03,14,0.00
2008,04,16,03,15,0.00
2008,04,16,03,16,0.00
2008,04,16,03,17,0.00
2008,04,16,03,18,0.00
2008,04,16,03,19,0.00
2008,04,16,03,20,0.00
2008,04,16,03,21,0.00
2008,04,16,03,22,0.00
2008,04,16,03,23,0.00
2008,04,16,03,24,0.00
2008,04,16,03,25,0.00
2008,04,16,03,26,0.00
2008,04,16,03,27,0.00
2008,04,16,03,28,0.00
2008,04,16,03,29,0.00
2008,04,16,03,30,0.00
2008,04,16,03,31,0.00
2008,04,16,03,32,0.00
2008,04,16,03,33,0.00
2008,04,16,03,34,0.00
2008,04,16,03,35,0.00
2008,04,16,03,36,0.00
2008,04,16,03,37,0.00
2008,04,16,03,38,0.00
2008,04,16,03,39,0.00
2008,04,16,03,40,0.00
2008,04,16,03,41,0.00
2008,04,16,03,42,0.00
2008,04,16,03,43,0.00
2008,04,16,03,44,0.00
2008,04,16,03,45,0.00
2008,04,16,03,46,0.00
2008,04,16,03,47,0.00
2008,04,16,03,48,0.00
2008,04,16,03,49,0.00
2008,04,16,03,50,0.00
2008,04,16,03,51,0.00
2008,04,16,03,52,0.00
2008,04,16,03,53,0.00
2008,04,16,03,54,0.00
2008,04,16,03,55,0.00
2008,04,16,03,56,0.00
2008,04,16,03,57,0.00
2008,04,16,03,58,0.00
2008,04,16,03,59,0.00
2008,04,16,04,00,0.00
2008,04,16,04,01,0.00
2008,04,16,04,02,0.00
2008,04,16,04,03,0.00
2008,04,16,04,04,0.00
2008,04,16,04,05,0.00
2008,04,16,04,06,0.00
2008,04,16,04,07,0.00
2008,04,16,04,08,0.00
2008,04,16,04,09,0.00
2008,04,16,04,10,0.00
2008,04,16,04,11,0.00
2008,04,16,04,12,0.00
2008,04,16,04,13,0.00
2008,04,16,04,14,0.00
2008,04,16,04,15,0.00
2008,04,16,04,16,0.00
2008,04,16,04,17,0.00
2008,04,16,04,18,0.00
2008,04,16,04,19,0.00
2008,04,16,04,20,0.00
2008,04,16,04,21,0.00
2008,04,16,04,22,0.00
2008,04,16,04,23,0.00
2008,04,16,04,24,0.00
2008,04,16,04,25,0.00
2008,04,16,04,26,0.00
2008,04,16,04,27,0.00
2008,04,16,04,28,0.00
2008,04,16,04,29,0.00
2008,04,16,04,30,0.00
2008,04,16,04,31,0.00
2008,04,16,04,32,0.00
2008,04,16,04,33,0.00
2008,04,16,04,34,0.00
2008,04,16,04,35,0.00
2008,04,16,04,36,0.00
2008,04,16,04,37,0.00
2008,04,16,04,38,0.00
2008,04,16,04,39,0.00
2008,04,16,04,40,0.00
2008,04,16,04,41,0.00
2008,04,16,04,42,0.00
2008,04,16,04,43,0.00
2008,04,16,04,44,0.00
2008,04,16,04,45,0.00
2008,04,16,04,46,0.00
2008,04,16,04,47,0.00
2008,04,16,04,48,0.00
2008,04,16,04,49,0.00
2008,04,16,04,50,0.00
2008,04,16,04,51,0.00
2008,04,16,04,52,0.00
2008,04,16,04,53,0.00
2008,04,16,04,54,0.00
2008,04,16,04,55,0.00
2008,04,16,04,56,0.00
2008,04,16,04,57,0.00
2008,04,16,04,58,0.00
2008,04,16,04,59,0.00
2008,04,16,05,00,0.00
2008,04,16,05,01,0.00
2008,04,16,05,02,0.00
2008,04,16,05,03,0.00
2008,04,16,05,04,0.00
2008,04,16,05,05,0.00
2008,04,16,05,06,0.00
2008,04,16,05,07,0.00
2008,04,16,05,08,0.00
2008,04,16,05,09,0.00
2008,04,16,05,10,0.00
2008,04,16,05,11,0.00
2008,04,16,05,12,0.00
2008,04,16,05,13,0.00
2008,04,16,05,14,0.00
2008,04,16,05,15,0.00
2008,04,16,05,16,0.00
2008,04,16,05,17,0.00
2008,04,16,05,18,0.00
2008,04,16,05,19,0.00
2008,04,16,05,20,0.00
2008,04,16,05,21,0.00
2008,04,16,05,22,0.00
2008,04,16,05,23,0.00
2008,04,16,05,24,0.00
2008,04,16,05,25,0.00
2008,04,16,05,26,0.00
2008,04,16,05,27,0.00
2008,04,16,05,28,0.00
2008,04,16,05,29,0.00
2008,04,16,05,30,0.00
2008,04,16,05,31,0.00
2008,04,16,05,32,0.00
2008,04,16,05,33,0.00
2008,04,16,05,34,0.00
2008,04,16,05,35,0.00
2008,04,16,05,36,0.00
2008,04,16,05,37,0.00
2008,04,16,05,38,0.00
2008,04,16,05,39,0.00
2008,04,16,05,40,0.00
2008,04,16,05,41,0.00
2008,04,16,05,42,0.00
2008,04,16,05,43,0.00
2008,04,16,05,44,0.00
2008,04,16,05,45,0.00
2008,04,16,05,46,0.00
2008,04,16,05,47,0.00
2008,04,16,05,48,0.00
2008,04,16,05,49,0.00
2008,04,16,05,50,0.00
2008,04,16,05,51,0.00
2008,04,16,05,52,0.00
2008,04,16,05,53,0.00
2008,04,16,05,54,0.00
2008,04,16,05,55,0.00
2008,04,16,05,56,0.00
2008,04,16,05,57,0.00
2008,04,16,05,58,0.00
2008,04,16,05,59,0.00
2008,04,16,06,00,0.00
2008,04,16,06,01,0.00
2008,04,16,06,02,0.00
2008,04,16,06,03,0.00
2008,04,16,06,04,0.00
2008,04,16,06,05,0.00
2008,04,16,06,06,0.00
2008,04,16,06,07,0.00
2008,04,16,06,08,0.00
2008,04,16,06,09,0.00
2008,04,16,06,10,0.00
2008,04,16,06,11,0.00
2008,04,16,06,12,0.00
2008,04,16,06,13,0.00
2008,04,16,06,14,0.00
2008,04,16,06,15,0.00
2008,04,16,06,16,0.00
2008,04,16,06,17,0.00
2008,04,16,06,18,0.00
2008,04,16,06,19,0.00
2008,04,16,06,20,0.00
2008,04,16,06,21,2.90
2008,04,16,06,22,5.00
2008,04,16,06,23,5.00
2008,04,16,06,24,5.00
2008,04,16,06,25,5.50
2008,04,16,06,26,7.00
2008,04,16,06,27,7.00
2008,04,16,06,28,7.00
2008,04,16,06,29,7.00
2008,04,16,06,30,9.00
2008,04,16,06,31,9.00
2008,04,16,06,32,9.80
2008,04,16,06,33,11.00
2008,04,16,06,34,11.00
2008,04,16,06,35,11.00
2008,04,16,06,36,11.10
2008,04,16,06,37,12.00
2008,04,16,06,38,12.00
2008,04,16,06,39,12.00
2008,04,16,06,40,13.60
2008,04,16,06,41,14.00
2008,04,16,06,42,14.00
2008,04,16,06,43,14.70
2008,04,16,06,44,16.00
2008,04,16,06,45,16.00
2008,04,16,06,46,17.70
2008,04,16,06,47,18.00
2008,04,16,06,48,19.00
2008,04,16,06,49,19.70
2008,04,16,06,50,22.00
2008,04,16,06,51,23.00
2008,04,16,06,52,23.00
2008,04,16,06,53,23.10
2008,04,16,06,54,25.00
2008,04,16,06,55,25.40
2008,04,16,06,56,26.00
2008,04,16,06,57,27.40
2008,04,16,06,58,28.00
2008,04,16,06,59,28.10
2008,04,16,07,00,30.00
2008,04,16,07,01,30.00
2008,04,16,07,02,31.00
2008,04,16,07,03,32.00
2008,04,16,07,04,32.00
2008,04,16,07,05,32.00
2008,04,16,07,06,32.20
2008,04,16,07,07,33.90
2008,04,16,07,08,36.20
2008,04,16,07,09,38.50
2008,04,16,07,10,39.90
2008,04,16,07,11,42.20
2008,04,16,07,12,44.50
2008,04,16,07,13,46.50
2008,04,16,07,14,48.20
2008,04,16,07,15,49.00
2008,04,16,07,16,50.90
2008,04,16,07,17,53.00
2008,04,16,07,18,53.00
2008,04,16,07,19,53.00
2008,04,16,07,20,53.00
2008,04,16,07,21,53.00
2008,04,16,07,22,53.90
2008,04,16,07,23,54.30
2008,04,16,07,24,56.70
2008,04,16,07,25,58.90
2008,04,16,07,26,61.30
2008,04,16,07,27,62.00
2008,04,16,07,28,60.00
2008,04,16,07,29,60.00
2008,04,16,07,30,60.00
2008,04,16,07,31,61.00
2008,04,16,07,32,62.00
2008,04,16,07,33,66.40
2008,04,16,07,34,67.10
2008,04,16,07,35,69.00
2008,04,16,07,36,69.40
2008,04,16,07,37,70.00
2008,04,16,07,38,70.00
2008,04,16,07,39,71.80
2008,04,16,07,40,73.80
2008,04,16,07,41,74.50
2008,04,16,07,42,76.00
2008,04,16,07,43,76.50
2008,04,16,07,44,77.00
2008,04,16,07,45,77.00
2008,04,16,07,46,79.00
2008,04,16,07,47,79.50
2008,04,16,07,48,81.00
2008,04,16,07,49,82.20
2008,04,16,07,50,83.00
2008,04,16,07,51,83.00
2008,04,16,07,52,83.10
2008,04,16,07,53,84.00
2008,04,16,07,54,84.80
2008,04,16,07,55,86.00
2008,04,16,07,56,86.00
2008,04,16,07,57,86.00
2008,04,16,07,58,84.10
2008,04,16,07,59,84.00
2008,04,16,08,00,84.00
2008,04,16,08,01,84.00
2008,04,16,08,02,84.00
2008,04,16,08,03,84.00
2008,04,16,08,04,83.80
2008,04,16,08,05,83.00
2008,04,16,08,06,83.00
2008,04,16,08,07,83.00
2008,04,16,08,08,83.00
2008,04,16,08,09,84.10
2008,04,16,08,10,86.00
2008,04,16,08,11,86.00
2008,04,16,08,12,86.00
2008,04,16,08,13,87.40
2008,04,16,08,14,88.00
2008,04,16,08,15,88.10
2008,04,16,08,16,90.00
2008,04,16,08,17,90.40
2008,04,16,08,18,91.00
2008,04,16,08,19,92.40
2008,04,16,08,20,93.00
2008,04,16,08,21,94.80
2008,04,16,08,22,95.50
2008,04,16,08,23,97.40
2008,04,16,08,24,99.20
2008,04,16,08,25,101.40
2008,04,16,08,26,103.80
2008,04,16,08,27,107.20
2008,04,16,08,28,109.90
2008,04,16,08,29,114.10
2008,04,16,08,30,117.20
2008,04,16,08,31,119.50
2008,04,16,08,32,120.00
2008,04,16,08,33,121.70
2008,04,16,08,34,125.60
2008,04,16,08,35,128.20
2008,04,16,08,36,131.20
2008,04,16,08,37,134.30
2008,04,16,08,38,136.90
2008,04,16,08,39,137.50
2008,04,16,08,40,142.50
2008,04,16,08,41,148.50
2008,04,16,08,42,151.00
2008,04,16,08,43,154.10
2008,04,16,08,44,156.00
2008,04,16,08,45,158.40
2008,04,16,08,46,160.60
2008,04,16,08,47,162.00
2008,04,16,08,48,162.60
2008,04,16,08,49,163.00
2008,04,16,08,50,167.00
2008,04,16,08,51,171.10
2008,04,16,08,52,172.00
2008,04,16,08,53,171.60
2008,04,16,08,54,171.00
2008,04,16,08,55,171.80
2008,04,16,08,56,174.10
2008,04,16,08,57,176.40
2008,04,16,08,58,178.40
2008,04,16,08,59,181.00
2008,04,16,09,00,187.90
2008,04,16,09,01,193.80
2008,04,16,09,02,199.30
2008,04,16,09,03,204.70
2008,04,16,09,04,209.90
2008,04,16,09,05,217.30
2008,04,16,09,06,222.20
2008,04,16,09,07,228.30
2008,04,16,09,08,236.30
2008,04,16,09,09,239.60
2008,04,16,09,10,245.90
2008,04,16,09,11,259.60
2008,04,16,09,12,277.20
2008,04,16,09,13,293.20
2008,04,16,09,14,283.50
2008,04,16,09,15,240.60
2008,04,16,09,16,215.10
2008,04,16,09,17,211.10
2008,04,16,09,18,279.00
2008,04,16,09,19,348.90
2008,04,16,09,20,352.90
2008,04,16,09,21,335.30
2008,04,16,09,22,366.00
2008,04,16,09,23,373.30
2008,04,16,09,24,414.60
2008,04,16,09,25,353.00
2008,04,16,09,26,364.50
2008,04,16,09,27,362.50
2008,04,16,09,28,352.00
2008,04,16,09,29,352.00
2008,04,16,09,30,360.20
2008,04,16,09,31,384.10
2008,04,16,09,32,380.10
2008,04,16,09,33,336.80
2008,04,16,09,34,324.90
2008,04,16,09,35,323.00
2008,04,16,09,36,316.40
2008,04,16,09,37,330.70
2008,04,16,09,38,342.80
2008,04,16,09,39,381.10
2008,04,16,09,40,422.00
2008,04,16,09,41,396.60
2008,04,16,09,42,339.50
2008,04,16,09,43,330.00
2008,04,16,09,44,343.90
2008,04,16,09,45,367.00
2008,04,16,09,46,361.10
2008,04,16,09,47,347.40
2008,04,16,09,48,400.90
2008,04,16,09,49,474.50
2008,04,16,09,50,480.60
2008,04,16,09,51,400.60
2008,04,16,09,52,374.70
2008,04,16,09,53,374.40
2008,04,16,09,54,380.00
2008,04,16,09,55,461.50
2008,04,16,09,56,378.50
2008,04,16,09,57,341.80
2008,04,16,09,58,318.80
2008,04,16,09,59,323.60
2008,04,16,10,00,392.10
2008,04,16,10,01,389.00
2008,04,16,10,02,318.50
2008,04,16,10,03,307.10
2008,04,16,10,04,320.90
2008,04,16,10,05,329.70
2008,04,16,10,06,392.00
2008,04,16,10,07,369.40
2008,04,16,10,08,365.60
2008,04,16,10,09,388.10
2008,04,16,10,10,424.00
2008,04,16,10,11,471.90
2008,04,16,10,12,452.00
2008,04,16,10,13,452.00
2008,04,16,10,14,438.90
2008,04,16,10,15,415.00
2008,04,16,10,16,416.80
2008,04,16,10,17,495.40
2008,04,16,10,18,553.50
2008,04,16,10,19,519.10
2008,04,16,10,20,563.10
2008,04,16,10,21,576.50
2008,04,16,10,22,575.00
2008,04,16,10,23,462.10
2008,04,16,10,24,489.10
2008,04,16,10,25,490.00
2008,04,16,10,26,524.20
2008,04,16,10,27,573.00
2008,04,16,10,28,631.50
2008,04,16,10,29,663.00
2008,04,16,10,30,515.00
2008,04,16,10,31,515.00
2008,04,16,10,32,514.10
2008,04,16,10,33,513.00
2008,04,16,10,34,571.50
2008,04,16,10,35,642.50
2008,04,16,10,36,617.50
2008,04,16,10,37,651.80
2008,04,16,10,38,659.80
2008,04,16,10,39,664.80
2008,04,16,10,40,651.20
2008,04,16,10,41,675.20
2008,04,16,10,42,614.70
2008,04,16,10,43,637.30
2008,04,16,10,44,664.50
2008,04,16,10,45,682.10
2008,04,16,10,46,692.80
2008,04,16,10,47,694.00
2008,04,16,10,48,690.70
2008,04,16,10,49,689.70
2008,04,16,10,50,692.00
2008,04,16,10,51,693.00
2008,04,16,10,52,693.00
2008,04,16,10,53,694.00
2008,04,16,10,54,702.10
2008,04,16,10,55,719.40
2008,04,16,10,56,733.00
2008,04,16,10,57,733.00
2008,04,16,10,58,593.80
2008,04,16,10,59,624.80
2008,04,16,11,00,704.70
2008,04,16,11,01,695.80
2008,04,16,11,02,702.00
2008,04,16,11,03,722.80
2008,04,16,11,04,719.00
2008,04,16,11,05,715.00
2008,04,16,11,06,715.00
2008,04,16,11,07,741.60
2008,04,16,11,08,791.00
2008,04,16,11,09,725.20
2008,04,16,11,10,637.10
2008,04,16,11,11,664.10
2008,04,16,11,12,666.00
2008,04,16,11,13,666.00
2008,04,16,11,14,666.00
2008,04,16,11,15,564.30
2008,04,16,11,16,533.00
2008,04,16,11,17,580.80
2008,04,16,11,18,520.00
2008,04,16,11,19,485.00
2008,04,16,11,20,485.00
2008,04,16,11,21,456.70
2008,04,16,11,22,448.00
2008,04,16,11,23,447.70
2008,04,16,11,24,462.70
2008,04,16,11,25,489.90
2008,04,16,11,26,527.60
2008,04,16,11,27,546.20
2008,04,16,11,28,547.50
2008,04,16,11,29,568.10
2008,04,16,11,30,661.50
2008,04,16,11,31,594.00
2008,04,16,11,32,564.00
2008,04,16,11,33,523.60
2008,04,16,11,34,476.00
2008,04,16,11,35,494.40
2008,04,16,11,36,559.00
2008,04,16,11,37,559.00
2008,04,16,11,38,559.00
2008,04,16,11,39,326.60
2008,04,16,11,40,254.90
2008,04,16,11,41,308.10
2008,04,16,11,42,471.00
2008,04,16,11,43,447.70
2008,04,16,11,44,429.00
2008,04,16,11,45,429.00
2008,04,16,11,46,910.10
2008,04,16,11,47,935.00
2008,04,16,11,48,763.80
2008,04,16,11,49,396.60
2008,04,16,11,50,357.00
2008,04,16,11,51,357.00
2008,04,16,11,52,923.40
2008,04,16,11,53,972.00
2008,04,16,11,54,736.90
2008,04,16,11,55,443.00
2008,04,16,11,56,443.00
2008,04,16,11,57,443.00
2008,04,16,11,58,385.00
2008,04,16,11,59,354.20
2008,04,16,12,00,266.70
2008,04,16,12,01,244.80
2008,04,16,12,02,239.10
2008,04,16,12,03,243.80
2008,04,16,12,04,253.50
2008,04,16,12,05,285.00
2008,04,16,12,06,330.40
2008,04,16,12,07,360.50
2008,04,16,12,08,360.70
2008,04,16,12,09,359.00
2008,04,16,12,10,345.60
2008,04,16,12,11,326.70
2008,04,16,12,12,310.70
2008,04,16,12,13,307.90
2008,04,16,12,14,318.10
2008,04,16,12,15,336.00
2008,04,16,12,16,349.70
2008,04,16,12,17,344.50
2008,04,16,12,18,329.70
2008,04,16,12,19,320.90
2008,04,16,12,20,327.50
2008,04,16,12,21,337.50
2008,04,16,12,22,345.00
2008,04,16,12,23,361.20
2008,04,16,12,24,380.40
2008,04,16,12,25,397.20
2008,04,16,12,26,422.80
2008,04,16,12,27,466.70
2008,04,16,12,28,471.60
2008,04,16,12,29,451.00
2008,04,16,12,30,445.40
2008,04,16,12,31,476.10
2008,04,16,12,32,489.00
2008,04,16,12,33,691.00
2008,04,16,12,34,691.00
2008,04,16,12,35,703.00
2008,04,16,12,36,725.70
2008,04,16,12,37,713.40
2008,04,16,12,38,707.80
2008,04,16,12,39,677.80
2008,04,16,12,40,669.80
2008,04,16,12,41,696.00
2008,04,16,12,42,651.90
2008,04,16,12,43,602.10
2008,04,16,12,44,574.20
2008,04,16,12,45,630.30
2008,04,16,12,46,606.70
2008,04,16,12,47,578.00
2008,04,16,12,48,562.30
2008,04,16,12,49,539.70
2008,04,16,12,50,542.60
2008,04,16,12,51,576.30
2008,04,16,12,52,576.10
2008,04,16,12,53,638.10
2008,04,16,12,54,698.70
2008,04,16,12,55,644.20
2008,04,16,12,56,580.00
2008,04,16,12,57,485.90
2008,04,16,12,58,504.10
2008,04,16,12,59,478.50
2008,04,16,13,00,407.70
2008,04,16,13,01,397.00
2008,04,16,13,02,397.00
2008,04,16,13,03,422.80
2008,04,16,13,04,496.50
2008,04,16,13,05,473.00
2008,04,16,13,06,473.00
2008,04,16,13,07,473.00
2008,04,16,13,08,515.00
2008,04,16,13,09,515.00
2008,04,16,13,10,709.80
2008,04,16,13,11,988.00
2008,04,16,13,12,988.00
2008,04,16,13,13,988.00
2008,04,16,13,14,947.90
2008,04,16,13,15,647.00
2008,04,16,13,16,647.00
2008,04,16,13,17,647.00
2008,04,16,13,18,647.00
2008,04,16,13,19,811.80
2008,04,16,13,20,885.60
2008,04,16,13,21,1130.00
2008,04,16,13,22,1130.00
2008,04,16,13,23,850.60
2008,04,16,13,24,622.00
2008,04,16,13,25,622.00
2008,04,16,13,26,645.00
2008,04,16,13,27,685.30
2008,04,16,13,28,782.00
2008,04,16,13,29,782.00
2008,04,16,13,30,505.30
2008,04,16,13,31,432.50
2008,04,16,13,32,426.60
2008,04,16,13,33,422.60
2008,04,16,13,34,408.50
2008,04,16,13,35,392.30
2008,04,16,13,36,381.40
2008,04,16,13,37,366.40
2008,04,16,13,38,356.30
2008,04,16,13,39,353.00
2008,04,16,13,40,356.20
2008,04,16,13,41,362.60
2008,04,16,13,42,368.10
2008,04,16,13,43,373.00
2008,04,16,13,44,372.60
2008,04,16,13,45,370.30
2008,04,16,13,46,370.10
2008,04,16,13,47,375.50
2008,04,16,13,48,378.00
2008,04,16,13,49,406.10
2008,04,16,13,50,436.40
2008,04,16,13,51,489.20
2008,04,16,13,52,587.40
2008,04,16,13,53,619.00
2008,04,16,13,54,619.00
2008,04,16,13,55,446.10
2008,04,16,13,56,431.00
2008,04,16,13,57,431.00
2008,04,16,13,58,431.00
2008,04,16,13,59,431.00
2008,04,16,14,00,431.00
2008,04,16,14,01,490.90
2008,04,16,14,02,445.00
2008,04,16,14,03,442.10
2008,04,16,14,04,438.00
2008,04,16,14,05,445.60
2008,04,16,14,06,453.10
2008,04,16,14,07,467.20
2008,04,16,14,08,468.30
2008,04,16,14,09,457.00
2008,04,16,14,10,447.90
2008,04,16,14,11,441.40
2008,04,16,14,12,423.10
2008,04,16,14,13,427.00
2008,04,16,14,14,444.90
2008,04,16,14,15,454.50
2008,04,16,14,16,451.80
2008,04,16,14,17,444.80
2008,04,16,14,18,429.00
2008,04,16,14,19,413.90
2008,04,16,14,20,396.60
2008,04,16,14,21,377.80
2008,04,16,14,22,360.50
2008,04,16,14,23,347.80
2008,04,16,14,24,333.30
2008,04,16,14,25,320.40
2008,04,16,14,26,309.90
2008,04,16,14,27,299.20
2008,04,16,14,28,289.90
2008,04,16,14,29,283.60
2008,04,16,14,30,281.00
2008,04,16,14,31,280.60
2008,04,16,14,32,279.00
2008,04,16,14,33,279.00
2008,04,16,14,34,280.40
2008,04,16,14,35,281.00
2008,04,16,14,36,282.40
2008,04,16,14,37,295.90
2008,04,16,14,38,304.30
2008,04,16,14,39,312.90
2008,04,16,14,40,317.50
2008,04,16,14,41,316.10
2008,04,16,14,42,318.60
2008,04,16,14,43,327.10
2008,04,16,14,44,334.40
2008,04,16,14,45,338.00
2008,04,16,14,46,334.90
2008,04,16,14,47,332.30
2008,04,16,14,48,329.00
2008,04,16,14,49,329.90
2008,04,16,14,50,333.60
2008,04,16,14,51,339.20
2008,04,16,14,52,348.40
2008,04,16,14,53,362.60
2008,04,16,14,54,375.50
2008,04,16,14,55,390.60
2008,04,16,14,56,404.60
2008,04,16,14,57,414.60
2008,04,16,14,58,421.10
2008,04,16,14,59,422.00
2008,04,16,15,00,419.30
2008,04,16,15,01,408.40
2008,04,16,15,02,404.40
2008,04,16,15,03,398.30
2008,04,16,15,04,385.30
2008,04,16,15,05,372.60
2008,04,16,15,06,364.40
2008,04,16,15,07,356.90
2008,04,16,15,08,350.40
2008,04,16,15,09,344.40
2008,04,16,15,10,339.40
2008,04,16,15,11,338.00
2008,04,16,15,12,337.60
2008,04,16,15,13,336.80
2008,04,16,15,14,340.50
2008,04,16,15,15,345.00
2008,04,16,15,16,349.20
2008,04,16,15,17,350.60
2008,04,16,15,18,355.50
2008,04,16,15,19,357.00
2008,04,16,15,20,355.80
2008,04,16,15,21,356.50
2008,04,16,15,22,357.00
2008,04,16,15,23,349.70
2008,04,16,15,24,348.00
2008,04,16,15,25,349.60
2008,04,16,15,26,358.50
2008,04,16,15,27,349.60
2008,04,16,15,28,339.40
2008,04,16,15,29,338.00
2008,04,16,15,30,338.80
2008,04,16,15,31,344.30
2008,04,16,15,32,348.00
2008,04,16,15,33,351.30
2008,04,16,15,34,359.10
2008,04,16,15,35,370.10
2008,04,16,15,36,389.80
2008,04,16,15,37,406.00
2008,04,16,15,38,406.00
2008,04,16,15,39,377.20
2008,04,16,15,40,360.00
2008,04,16,15,41,361.90
2008,04,16,15,42,377.00
2008,04,16,15,43,391.20
2008,04,16,15,44,394.00
2008,04,16,15,45,390.70
2008,04,16,15,46,390.20
2008,04,16,15,47,396.00
2008,04,16,15,48,404.00
2008,04,16,15,49,403.50
2008,04,16,15,50,406.10
2008,04,16,15,51,403.60
2008,04,16,15,52,389.10
2008,04,16,15,53,371.60
2008,04,16,15,54,357.90
2008,04,16,15,55,348.10
2008,04,16,15,56,338.50
2008,04,16,15,57,332.50
2008,04,16,15,58,330.70
2008,04,16,15,59,336.70
2008,04,16,16,00,339.90
2008,04,16,16,01,338.10
2008,04,16,16,02,332.10
2008,04,16,16,03,327.20
2008,04,16,16,04,321.20
2008,04,16,16,05,312.70
2008,04,16,16,06,305.20
2008,04,16,16,07,298.90
2008,04,16,16,08,294.70
2008,04,16,16,09,288.90
2008,04,16,16,10,285.20
2008,04,16,16,11,289.40
2008,04,16,16,12,305.80
2008,04,16,16,13,316.90
2008,04,16,16,14,318.80
2008,04,16,16,15,322.00
2008,04,16,16,16,323.90
2008,04,16,16,17,331.70
2008,04,16,16,18,390.00
2008,04,16,16,19,439.00
2008,04,16,16,20,439.00
2008,04,16,16,21,439.00
2008,04,16,16,22,426.80
2008,04,16,16,23,412.20
2008,04,16,16,24,475.00
2008,04,16,16,25,475.00
2008,04,16,16,26,347.10
2008,04,16,16,27,319.10
2008,04,16,16,28,369.00
2008,04,16,16,29,433.80
2008,04,16,16,30,554.00
2008,04,16,16,31,554.00
2008,04,16,16,32,308.70
2008,04,16,16,33,274.20
2008,04,16,16,34,281.80
2008,04,16,16,35,307.70
2008,04,16,16,36,310.80
2008,04,16,16,37,296.70
2008,04,16,16,38,315.40
2008,04,16,16,39,288.40
2008,04,16,16,40,261.00
2008,04,16,16,41,253.10
2008,04,16,16,42,240.50
2008,04,16,16,43,231.60
2008,04,16,16,44,225.30
2008,04,16,16,45,225.00
2008,04,16,16,46,221.80
2008,04,16,16,47,212.70
2008,04,16,16,48,209.70
2008,04,16,16,49,206.90
2008,04,16,16,50,204.10
2008,04,16,16,51,201.60
2008,04,16,16,52,198.40
2008,04,16,16,53,196.20
2008,04,16,16,54,195.00
2008,04,16,16,55,193.40
2008,04,16,16,56,194.70
2008,04,16,16,57,197.00
2008,04,16,16,58,197.60
2008,04,16,16,59,198.00
2008,04,16,17,00,195.70
2008,04,16,17,01,195.00
2008,04,16,17,02,192.00
2008,04,16,17,03,189.60
2008,04,16,17,04,188.00
2008,04,16,17,05,188.00
2008,04,16,17,06,186.60
2008,04,16,17,07,186.00
2008,04,16,17,08,186.00
2008,04,16,17,09,186.00
2008,04,16,17,10,185.60
2008,04,16,17,11,184.00
2008,04,16,17,12,181.60
2008,04,16,17,13,179.20